Regional Weather Roundup
Issued by NWS

Home | Current Version | Previous Version | Text Only | Print | Product List | Glossary Off
Versions: 1 2 3 4 5 6 7 8 9 10 11 12 13 14 15 16 17 18 19 20 21 22 23 24 25 26 27 28 29 30 31 32 33 34 35 36 37 38 39 40 41 42 43 44 45 46 47 48 49 50

000
ASUS45 KABQ 231110
RWRNM
NEW MEXICO REGIONAL WEATHER ROUNDUP
NATIONAL WEATHER SERVICE ALBUQUERQUE NM
400 AM MST THU FEB 23 2017

NOTE: "FAIR" MEANS FEW OR NO CLOUDS BELOW 12,000 FEET AGL WITH NO
       SIGNIFICANT WEATHER OR OBSTRUCTIONS TO VISION.

      THIS PRODUCT IS RELEASED AS TWO VERSIONS.  ONE VERSION NEAR
      THE TOP OF THE HOUR CONTAINING PRELIMINARY DATA FROM ALBUQUERQUE
      AND OTHER STATIONS.  A FINAL VERSION WITH ADDITIONAL DATA IS
      ISSUED ABOUT 10 MINUTES AFTER THE HOUR.

NMZ501-503-504-510>518-231200-
NORTHWEST PLATEAU/NORTHCENTRAL MOUNTAINS

CITY           SKY/WX    TMP DP  RH WIND       PRES   REMARKS
FARMINGTON     CLOUDY    39  29  67 NW8       29.62F WCI  33
LOS ALAMOS     FAIR      42  24  49 S13       29.70F
SANTA FE       FAIR      39  24  55 S3        29.69F
TAOS             N/A     39  19  45 SW8       29.69F WCI  34
ANGEL FIRE     FAIR      35  23  61 SW12G25   29.71F WCI  26

$$
NMZ402-403-502-505>509-231200-
WESTCENTRAL MOUNTAINS/SOUTHWEST MOUNTAINS

CITY           SKY/WX    TMP DP  RH WIND       PRES   REMARKS
GALLUP         FAIR      39  24  55 SW17      29.70F WCI  30
GRANTS         FAIR      43  23  46 SW12G18   29.74R
SILVER CITY    FAIR      50  37  61 SW12      29.84F

$$
NMZ407-409-411-412-231200-
SOUTHERN DESERTS

CITY           SKY/WX    TMP DP  RH WIND       PRES   REMARKS
DEMING         FAIR      51  37  58 SW7       29.80F
LAS CRUCES     FAIR      51  37  59 SW9       29.82F
HOLLOMAN AFB   FAIR      53  31  44 SE9       29.80F
ALAMOGORDO     FAIR      54  32  43 SE14      29.79F
T OR C         FAIR      53  34  48 SW13      29.74F

$$
NMZ519>523-231200-
CENTRAL VALLEYS/CENTRAL HIGHLANDS

CITY           SKY/WX    TMP DP  RH WIND       PRES   REMARKS
ALBUQUERQUE    FAIR      44  28  53 S10       29.68F
DOUBLE EAGLE   FAIR      41  26  53 SW14      29.68F
MORIARTY ARPT  FAIR      41  26  55 S13G20    29.70F
CLINES CORNERS FAIR      40  25  55 SW18      29.72F WCI  31
BELEN          FAIR      47  29  49 S9        29.69F
SOCORRO        FAIR      53  31  44 SW10      29.69F

$$
NMZ524>526-539-540-231200-
SOUTHCENTRAL MOUNTAINS

CITY           SKY/WX    TMP DP  RH WIND       PRES   REMARKS
RUIDOSO        FAIR      50  28  43 SW23G35   29.80F

$$
NMZ527>531-231200-
NORTHEAST HIGHLANDS/NORTHEAST PLAINS

CITY           SKY/WX    TMP DP  RH WIND       PRES   REMARKS
RATON          FAIR      35  27  72 SW8       29.61F WCI  29
CLAYTON        FAIR      45  35  68 SW9       29.62F

$$
NMZ532>537-231200-
EASTCENTRAL PLAINS

CITY           SKY/WX    TMP DP  RH WIND       PRES   REMARKS
TUCUMCARI      FAIR      42  32  67 SW5       29.64F
CANNON AFB     FAIR      50  31  48 SW8       29.67F
CLOVIS AIRPORT FAIR      50  30  46 W12       29.68F

$$
NMZ028-029-538-231200-
SOUTHEAST PLAINS

CITY           SKY/WX    TMP DP  RH WIND       PRES   REMARKS
ROSWELL        FAIR      52  29  41 S7          N/A
ARTESIA        FAIR      59  28  31 SW18G25   29.70S
CARLSBAD       FAIR      68  30  24 SW21      29.69S
HOBBS          FAIR      50  25  37 SW8       29.73S


$$




USA.gov is the U.S. government's official web portal to all federal, state and local government web resources and services.